Regional Weather Roundup
Issued by NWS Cleveland, OH

Home | Current Version | Previous Version | Graphics & Text | Print | Product List | Glossary On
Versions: 1 2 3 4 5 6 7 8 9 10 11 12 13 14 15 16 17 18 19 20 21 22 23 24 25 26 27 28 29 30 31 32 33 34 35 36 37 38 39 40 41 42 43 44 45 46 47 48 49 50
000
ASUS41 KCLE 231500
RWRCLE
OHIO REGIONAL WEATHER ROUNDUP
NATIONAL WEATHER SERVICE WILMINGTON, OH
1100 AM EDT SAT MAY 23 2015

NOTE: "FAIR" INDICATES FEW OR NO CLOUDS BELOW 12,000 FEET WITH NO
SIGNIFICANT WEATHER AND/OR OBSTRUCTIONS TO VISIBILITY.

OHZ001>008-015>018-024>027-034-035-043-044-231600-
   NORTHWEST OHIO

CITY           SKY/WX    TMP DP  RH WIND       PRES   REMARKS
DEFIANCE       SUNNY     67  42  40 S6        30.39F
FINDLAY        SUNNY     68  40  35 S9        30.39S
TOLEDO EXPRESS SUNNY     65  36  34 VRB6      30.39F
TOLEDO EXEC    SUNNY     67  34  29 SE9       30.40F
LIMA           SUNNY     67  42  40 SW9       30.40S
$$

OHZ009>014-019>023-028>033-038-089-231600-
   NORTHEAST OHIO

CITY           SKY/WX    TMP DP  RH WIND       PRES   REMARKS
CLE-HOPKINS    SUNNY     64  37  36 S7        30.43F
CLE-LAKEFRONT  SUNNY     65  36  34 SW10      30.41F
CUY CO. ARPT   SUNNY     64  37  36 SW9       30.42F
LORAIN-ELYRIA  SUNNY     64  36  35 VRB6      30.41F
ASHTABULA      SUNNY     59  31  34 SW9       30.45F
AKRON-CANTON   SUNNY     63  34  33 S7        30.43F
WOOSTER        NOT AVBL
MANSFIELD      SUNNY     64  35  34 S6        30.41F
YOUNGSTOWN     MOSUNNY   60  31  33 S7        30.44F
$$

OHZ042-051>053-060>062-070>072-077>081-231600-
  SOUTHWEST OHIO

CITY           SKY/WX    TMP DP  RH WIND       PRES   REMARKS
CINC-COVINGTON PTSUNNY   69  52  54 CALM      30.40R
CINC-LUNKEN    PTSUNNY   64  54  69 CALM      30.41S
HAMILTON       PTSUNNY   68  50  52 CALM      30.41S
DAYTON         NOT AVBL
WRIGHT-PAT AFB MOSUNNY   66  46  48 SE7       30.40S
DAYTON GENERAL MOSUNNY   68  50  52 S5        30.40S
WILMINGTON     MOSUNNY   69  46  43 VRB5      30.40S
$$

OHZ036-037-039>041-045>050-054>059-063>069-073>076-082>088-231600-
  CENTRAL AND SOUTHEAST OHIO

CITY           SKY/WX    TMP DP  RH WIND       PRES   REMARKS
COLUMBUS       MOSUNNY   65  40  39 SE7       30.41S
OSU AIRPORT    SUNNY     66  39  37 SE7       30.42S
BOLTON FIELD   NOT AVBL
RICKENBACK AFB NOT AVBL
NEWARK         SUNNY     66  40  38 S6        30.41F
MARION         SUNNY     66  37  34 S8        30.41F
LANCASTER      SUNNY     68  41  37 S9        30.42S
ZANESVILLE     SUNNY     64  39  39 CALM      30.42F
NEW PHILLY     SUNNY     63  37  38 SE9       30.44F
$$



USA.gov is the U.S. government's official web portal to all federal, state and local government web resources and services.